World > North America > United States > Alabama
Hourly Weather in Geneva, AlabamaGeneva, Alabama Hourly Weather

Geneva, AL Hourly Weather

Hourly Weather Geneva, AlabamaHourly Weather in Geneva, AL
Lat: 31.04N, Lon: 85.88W  ICAO: KOZR
Web Search

Helpful Tip: Type the letters wx in the search engine next time you need to find us.

Feedback

Geneva Hourly Weather

36 Hour Weather Scroll   °F Click to change Geneva hourly weather to Imperial units.Click to change Geneva hourly weather to Metric units. °C
Currently, Clear, temperature is 63°F17°C, dew point 63°F17°C, humidity 99%. Wind direction is N at 0 mph0 km/h with visibility of 10.00 mi16 km. Barometric pressure is 30.03 in1017 mb.

Sep 28
4:00 AM

Sep 28
5:00 AM

Sep 28
6:00 AM

Sep 28
7:00 AM

Sep 28
8:00 AM

Sep 28
9:00 AM

Sep 28
10:00 AM

Sep 28
11:00 AM

Sep 28
NOON

Sep 28
1:00 PM

Sep 28
2:00 PM

Sep 28
3:00 PM

Sep 28
4:00 PM

Sep 28
5:00 PM

Sep 28
6:00 PM

Sep 28
7:00 PM

Sep 28
8:00 PM

Sep 28
9:00 PM

Sep 28
10:00 PM

Sep 28
11:00 PM

Sep 29
MIDNIGHT

Sep 29
1:00 AM

Sep 29
2:00 AM

Sep 29
3:00 AM

Sep 29
4:00 AM

Sep 29
5:00 AM

Sep 29
6:00 AM

Sep 29
7:00 AM

Sep 29
8:00 AM

Sep 29
9:00 AM

Sep 29
10:00 AM

Sep 29
11:00 AM

Sep 29
NOON

Sep 29
1:00 PM

Sep 29
2:00 PM

Sep 29
3:00 PM
Clear Clear Mostly Clear Mostly Clear Mostly Clear Mostly Clear Mostly Clear Mostly Clear Mostly Clear Mostly Clear Mostly Clear Mostly Clear Mostly Clear Mostly Clear Mostly Clear Mostly Clear Mostly Clear Partly Cloudy Partly Cloudy Partly Cloudy Mostly Clear Mostly Clear Mostly Clear Clear Clear Clear Mostly Clear Mostly Clear Mostly Clear Clear Clear Clear Partly Cloudy Partly Cloudy Partly Cloudy Partly Cloudy
Clear Clear Mostly Clear Mostly Clear Mostly Clear Mostly Clear Mostly Clear Mostly Clear Mostly Clear Mostly Clear Mostly Clear Mostly Clear Mostly Clear Mostly Clear Mostly Clear Mostly Clear Mostly Clear Partly Cloudy Partly Cloudy Partly Cloudy Mostly Clear Mostly Clear Mostly Clear Clear Clear Clear Mostly Clear Mostly Clear Mostly Clear Clear Clear Clear Partly Cloudy Partly Cloudy Partly Cloudy Partly Cloudy
65°F18°C 65°F18°C 65°F18°C 65°F18°C 69°F21°C 73°F23°C 77°F25°C 79°F26°C 81°F27°C 83°F28°C 84°F29°C 84°F29°C 85°F29°C 83°F28°C 81°F27°C 79°F26°C 77°F25°C 75°F24°C 73°F23°C 72°F22°C 71°F22°C 70°F21°C 70°F21°C 69°F21°C 69°F21°C 69°F21°C 68°F20°C 68°F20°C 72°F22°C 75°F24°C 79°F26°C 81°F27°C 83°F28°C 85°F29°C 85°F29°C 86°F30°C
- - - - - - - - - - - - - - - - - - - - - - - - - - - - - - - - - - - -
0% 0% 0% 0% 0% 0% 0% 0% 0% 0% 2% 2% 2% 2% 2% 2% 3% 3% 3% 3% 3% 3% 2% 2% 2% 2% 2% 2% 9% 9% 9% 9% 9% 9% 4% 4%
65°F18°C 65°F18°C 65°F18°C 65°F18°C 66°F19°C 68°F20°C 69°F21°C 68°F20°C 67°F19°C 66°F19°C 66°F19°C 65°F18°C 65°F18°C 65°F18°C 66°F19°C 66°F19°C 66°F19°C 67°F19°C 67°F19°C 67°F19°C 67°F19°C 67°F19°C 67°F19°C 67°F19°C 67°F19°C 67°F19°C 66°F19°C 66°F19°C 67°F19°C 69°F21°C 70°F21°C 69°F21°C 68°F20°C 67°F19°C 67°F19°C 66°F19°C
100% 100% 100% 100% 90% 84% 76% 69% 63% 57% 55% 53% 51% 55% 60% 65% 69% 76% 82% 84% 87% 90% 90% 93% 93% 93% 93% 93% 84% 82% 74% 67% 61% 55% 55% 51%
WNW NW NW NNW NW W SW SSW SSW SSW SSW SSW SSW SSW SW SW SW SW SW SW SW SW W NW NNW NW SSW SW SW SW SSW SSW WNW NW W SSW
1 mph 1 mph 1 mph 1 mph 1 mph 3 mph 3 mph 3 mph 4 mph 4 mph 4 mph 5 mph 5 mph 5 mph 3 mph 3 mph 3 mph 3 mph 3 mph 3 mph 1 mph 1 mph 1 mph 1 mph 1 mph 1 mph 1 mph 1 mph 1 mph 3 mph 3 mph 3 mph 4 mph 4 mph 4 mph 5 mph
10 mi16 km 6 mi10 km 6 mi10 km 5 mi8 km 6 mi10 km 6 mi10 km 10 mi16 km 10 mi16 km 10 mi16 km 10 mi16 km 10 mi16 km 10 mi16 km 10 mi16 km 10 mi16 km 10 mi16 km 10 mi16 km 10 mi16 km 10 mi16 km 10 mi16 km 10 mi16 km 10 mi16 km 10 mi16 km 6 mi10 km 6 mi10 km 5 mi8 km 5 mi8 km 6 mi10 km 6 mi10 km 6 mi10 km 10 mi16 km 10 mi16 km 10 mi16 km 10 mi16 km 10 mi16 km 10 mi16 km 10 mi16 km
Hour (CDT)
Weather
Clouds
Temperature
Precip. Type
POP
Dewpoint
Humidity
Wind Direction
Wind Speed
Visibility
POP = Probability of Precipitation. ** Indicates missing data/values from model statistics.

24 Hour Forecast

Today - Mostly sunny. Patchy fog in the morning. Highs in the upper 80s. Light winds becoming south up to 5 mph in the afternoon.
Tonight - Partly cloudy. Lows in the upper 60s. West winds up to 5 mph.

48 Hour Forecast API Feed


Tue, Sep 28
4:00 am

Tue, Sep 28
5:00 am

Tue, Sep 28
6:00 am

Tue, Sep 28
7:00 am

Tue, Sep 28
8:00 am

Tue, Sep 28
9:00 am

Tue, Sep 28
10:00 am

Tue, Sep 28
11:00 am

Tue, Sep 28
Noon

Tue, Sep 28
1:00 pm

Tue, Sep 28
2:00 pm

Tue, Sep 28
3:00 pm

Tue, Sep 28
4:00 pm

Tue, Sep 28
5:00 pm

Tue, Sep 28
6:00 pm

Tue, Sep 28
7:00 pm

Tue, Sep 28
8:00 pm

Tue, Sep 28
9:00 pm

Tue, Sep 28
10:00 pm

Tue, Sep 28
11:00 pm

Wed, Sep 29
Midnight

Wed, Sep 29
1:00 am

Wed, Sep 29
2:00 am

Wed, Sep 29
3:00 am

Wed, Sep 29
4:00 am

Wed, Sep 29
5:00 am

Wed, Sep 29
6:00 am

Wed, Sep 29
7:00 am

Wed, Sep 29
8:00 am

Wed, Sep 29
9:00 am

Wed, Sep 29
10:00 am

Wed, Sep 29
11:00 am

Wed, Sep 29
Noon

Wed, Sep 29
1:00 pm

Wed, Sep 29
2:00 pm

Wed, Sep 29
3:00 pm

Wed, Sep 29
4:00 pm

Wed, Sep 29
5:00 pm

Wed, Sep 29
6:00 pm

Wed, Sep 29
7:00 pm

Wed, Sep 29
8:00 pm

Wed, Sep 29
9:00 pm

Wed, Sep 29
10:00 pm

Wed, Sep 29
11:00 pm

Thu, Sep 30
Midnight

Thu, Sep 30
1:00 am

Thu, Sep 30
2:00 am

Thu, Sep 30
3:00 am
MistMistMistMistPartly CloudyPartly CloudyPartly CloudyPartly CloudyPartly CloudyPartly CloudyPartly CloudyPartly CloudyPartly CloudyPartly CloudyPartly CloudyPartly CloudyPartly CloudyPartly CloudyPartly CloudyPartly CloudyPartly CloudyPartly CloudyPartly CloudyPartly CloudyPartly CloudyPartly CloudyPartly CloudyPartly CloudyPartly CloudyPartly CloudyPartly CloudyPartly CloudyPartly CloudyPatchy Rain PossiblePartly CloudyCloudyPartly CloudyPartly CloudyPartly CloudyPartly CloudyPartly CloudyPartly CloudyPartly CloudyPartly CloudyPartly CloudyPartly CloudyPartly CloudyPartly Cloudy
Mist Mist Mist Mist Partly cloudy Partly cloudy Partly cloudy Partly cloudy Partly cloudy Partly cloudy Partly cloudy Partly cloudy Partly cloudy Partly cloudy Partly cloudy Partly cloudy Partly cloudy Partly cloudy Partly cloudy Partly cloudy Partly cloudy Partly cloudy Partly cloudy Partly cloudy Partly cloudy Partly cloudy Partly cloudy Partly cloudy Partly cloudy Partly cloudy Partly cloudy Partly cloudy Partly cloudy Patchy rain possible Partly cloudy Cloudy Partly cloudy Partly cloudy Partly cloudy Partly cloudy Partly cloudy Partly cloudy Partly cloudy Partly cloudy Partly cloudy Partly cloudy Partly cloudy Partly cloudy
68°F
20°C
68°F
20°C
67°F
20°C
68°F
20°C
72°F
22°C
76°F
24°C
79°F
26°C
84°F
29°C
89°F
32°C
91°F
33°C
91°F
33°C
87°F
30°C
89°F
32°C
85°F
29°C
80°F
27°C
77°F
25°C
76°F
24°C
74°F
23°C
73°F
23°C
72°F
22°C
71°F
22°C
71°F
22°C
71°F
21°C
70°F
21°C
70°F
21°C
70°F
21°C
69°F
21°C
70°F
21°C
74°F
23°C
77°F
25°C
81°F
27°C
85°F
30°C
91°F
33°C
88°F
31°C
88°F
31°C
87°F
31°C
87°F
30°C
84°F
29°C
81°F
27°C
79°F
26°C
77°F
25°C
76°F
24°C
75°F
24°C
74°F
23°C
73°F
23°C
72°F
22°C
71°F
22°C
71°F
22°C
67°F
19°C
66°F
19°C
66°F
19°C
66°F
19°C
67°F
20°C
68°F
20°C
69°F
20°C
70°F
21°C
71°F
22°C
70°F
21°C
68°F
20°C
63°F
17°C
65°F
19°C
65°F
19°C
65°F
19°C
63°F
17°C
64°F
18°C
65°F
19°C
66°F
19°C
66°F
19°C
66°F
19°C
66°F
19°C
66°F
19°C
66°F
19°C
66°F
19°C
66°F
19°C
66°F
19°C
66°F
19°C
67°F
20°C
68°F
20°C
69°F
20°C
69°F
21°C
72°F
22°C
68°F
20°C
66°F
19°C
65°F
19°C
65°F
18°C
67°F
19°C
67°F
19°C
65°F
19°C
65°F
19°C
65°F
19°C
65°F
19°C
66°F
19°C
66°F
19°C
66°F
19°C
66°F
19°C
65°F
19°C
30.03 in
1017 mb
30.03 in
1017 mb
30.03 in
1017 mb
30.06 in
1018 mb
30.06 in
1018 mb
30.06 in
1018 mb
30.06 in
1018 mb
30.06 in
1018 mb
30.03 in
1017 mb
30.03 in
1017 mb
30 in
1016 mb
29.97 in
1015 mb
29.94 in
1014 mb
29.94 in
1014 mb
29.94 in
1014 mb
29.97 in
1015 mb
29.97 in
1015 mb
30 in
1016 mb
30 in
1016 mb
29.97 in
1015 mb
29.97 in
1015 mb
29.97 in
1015 mb
29.97 in
1015 mb
29.97 in
1015 mb
29.97 in
1015 mb
30 in
1016 mb
30 in
1016 mb
30 in
1016 mb
30.03 in
1017 mb
30.03 in
1017 mb
30.06 in
1018 mb
30.03 in
1017 mb
30.03 in
1017 mb
30 in
1016 mb
29.97 in
1015 mb
29.97 in
1015 mb
29.94 in
1014 mb
29.94 in
1014 mb
29.97 in
1015 mb
29.97 in
1015 mb
30 in
1016 mb
30 in
1016 mb
30 in
1016 mb
30 in
1016 mb
30 in
1016 mb
30 in
1016 mb
30 in
1016 mb
30 in
1016 mb
95%94%94%95%87%77%70%63%55%50%47%46%47%53%62%62%67%75%79%82%84%85%86%87%88%89%90%89%81%73%66%60%55%52%50%48%49%56%63%63%67%70%72%76%79%81%83%83%
WNWNWNWNNWNNWNNWWSWSWSWWSWNNWNNWNNEENESSESSWSWSWSWWSWWWWWSWWSWWWWNWWWSWWSWSSWSEEEENEENEESESSWWSWWSWWSWWSWWSWWWNWNW
2 mph
4 km/h
2 mph
3 km/h
2 mph
3 km/h
2 mph
4 km/h
2 mph
3 km/h
1 mph
2 km/h
0 mph
1 km/h
2 mph
3 km/h
2 mph
4 km/h
1 mph
2 km/h
1 mph
1 km/h
1 mph
2 km/h
2 mph
4 km/h
3 mph
4 km/h
3 mph
5 km/h
3 mph
5 km/h
5 mph
8 km/h
5 mph
9 km/h
5 mph
8 km/h
4 mph
7 km/h
3 mph
5 km/h
3 mph
5 km/h
2 mph
4 km/h
2 mph
4 km/h
2 mph
3 km/h
2 mph
3 km/h
1 mph
2 km/h
2 mph
3 km/h
2 mph
4 km/h
2 mph
4 km/h
2 mph
4 km/h
2 mph
4 km/h
1 mph
2 km/h
1 mph
1 km/h
3 mph
5 km/h
2 mph
4 km/h
2 mph
4 km/h
3 mph
5 km/h
2 mph
3 km/h
5 mph
8 km/h
5 mph
8 km/h
5 mph
8 km/h
5 mph
8 km/h
6 mph
9 km/h
5 mph
9 km/h
4 mph
7 km/h
3 mph
5 km/h
3 mph
5 km/h
0%0%0%0%0%0%0%0%0%0%0%0%0%0%0%0%0%0%0%0%0%0%0%0%0%0%0%0%0%0%0%0%0%70%0%0%0%0%0%0%0%0%0%0%0%0%0%0%
1 mi
2 km
1 mi
2 km
1 mi
2 km
1 mi
2 km
6 mi
10 km
6 mi
10 km
6 mi
10 km
6 mi
10 km
6 mi
10 km
6 mi
10 km
6 mi
10 km
6 mi
10 km
6 mi
10 km
6 mi
10 km
6 mi
10 km
6 mi
10 km
6 mi
10 km
6 mi
10 km
6 mi
10 km
6 mi
10 km
6 mi
10 km
6 mi
10 km
6 mi
10 km
6 mi
10 km
6 mi
10 km
6 mi
10 km
6 mi
10 km
6 mi
10 km
6 mi
10 km
6 mi
10 km
6 mi
10 km
6 mi
10 km
6 mi
10 km
6 mi
10 km
6 mi
10 km
6 mi
10 km
6 mi
10 km
6 mi
10 km
6 mi
10 km
6 mi
10 km
6 mi
10 km
6 mi
10 km
6 mi
10 km
6 mi
10 km
6 mi
10 km
6 mi
10 km
6 mi
10 km
6 mi
10 km

Day/Time
Weather
Condition
Temperature
Dew Point
Pressure
Humidity
Wind Direction
Wind Speed
Prob Precip %
Visibility
Prob Precip % = Probability of Precipitation.